Latest METARs, TAFs and NOTAMs for SABE


---------------------------------------------------------------------------
	(OBSERVATIONS)
SABE 271000Z 32007KT 9999 SCT035 OVC080 18/15 Q1008=
SABE 270900Z 34007KT CAVOK 19/15 Q1008=
SABE 270800Z 31007KT CAVOK 20/14 Q1009=
---------------------------------------------------------------------------
	(TERMINAL AREA FORECAST)
COR SABE 270925Z 2706/2806 36010KT 9999 SCT030 BKN090 TX18/2718Z
    TN14/2724Z
    BECMG 2708/2710 25010KT 5000 -TSRA SCT010 FEW035CB OVC050
    BECMG 2714/2716 23010KT 9999 BKN030=
---------------------------------------------------------------------------
	(NOTAMS)


SABE A1100/17 ON COMMERCIAL APN, PSN N 4, 5, 6, 8, 18 AND 29,
    ALSO ALLOW ACFT A-321. PSN 23 AND 25 ALSO ALLOW ACFT ATR-72
    CHANGES AIP VOL. III AIRCRAFT PARKING AND BERTHING DIAGRAM
    ON COMMERCIAL APRON IN TAXI STANDARDS, MOVEMENT AND PARKING
    IN AMDT AIRAC 2/16. 23 FEB 17:33 2017 UNTIL PERM. CREATED:
    23 FEB 17:37 2017

SABE A1700/17 AS OF MARCH-01-2010 BUENOS AIRES/AEROPARQUE J.
    NEWBERY AERODROME BECOMES PERMANENTLY INTERNATIONAL FOR FLIGHTS
    BELONGING TO AEROLINEAS ARGENTINAS COMPANY COMING FROM OR
    WITH FINAL DESTINATION TO THE FEDERATIVE REPUBLIC BRAZIL,
    REPUBLIC OF PARAGUAY AND REPUBLIC OF CHILE, IN ACCORDANCE
    WTIH ANAC RESOLUTION 264 FROM JAN-21-2010. 25 MAR 12:14 2017
    UNTIL PERM. CREATED: 25 MAR 12:18 2017

SABE A1701/17 AD TIME EXTENSION FOR POTENCIAL TEST MAXIMUM MOTORS
    NOT SUPERIOR TO 60 PERCENT AND 70 DB OF 0900-1100 AND 0100-0200.
    25 MAR 12:19 2017 UNTIL PERM. CREATED: 25 MAR 12:22 2017

SABE A2459/15 IN ORDER TO ENHACE THE AIRSPACE USE RADAR ASSISTANCE
    IS PROVIDED FOR INSTRUMENT APROACHES INSIDE AEROPARQUE CTR
    TO KEEP IN SEQUENCE APPROACH TRAFFIC UNDER SURVEILLANCE THIS
    RADAR ASSITANCE DOES NOT MEAN RADDAR APPROACH CONROL SERVICE.
    14 MAY 17:50 2015 UNTIL PERM. CREATED: 14 MAY 17:56 2015

SABE A2487/15 BY MEANS OF RESOLUTION NUMBER 1005/2013 FROM NOVEMBER
    5TH 2013 TANGO JET S.A (REGISTRATION MARKS: LV-AIW AND N70FL)
    AND MACAIR JET S.A AIR COMPANIES(REGISTRATION MARKS: LV-ZRL,
    LV-ZST, LV-ZPZ, LV-ZPW, LV-ZOW, LV-OEL AND LV-BPO) SHALL
    BE ABLE TO OPERATE FROM AND TO AEROPARQUE JORGE NEWBERY IN
    THE PERIOD OF TIME BETWEEN 0400 TO 0700 UTC OR, IN THE CASE
    OF, NOT HAVING THE CONFIGUTARION OF THAT AIR BASE OPERATIVE
    CAPACITY LIMIT. DLY 0400-0700, 15 MAY 03:59 2015 UNTIL PERM.
    CREATED: 15 MAY 04:03 2015

SABE A3210/17 RWY 13/31 CLSD WIP MAINT. 01, 06, 08, 13, 15, 22
    AND 29 0430-0730, 01 JUN 04:30 2017 UNTIL 29 JUN 07:30 2017.
    CREATED: 26 MAY 19:43 2017

SABE A3339/17 NDB LI P 280.0 KHZ RWY 13 U/S. 02 JUN 14:30 2017
    UNTIL 01 JUL 02:59 2017. CREATED: 02 JUN 14:26 2017

SABE A3340/17 NDB LO OP 260.0 KHZ RWY 13 U/S. 02 JUN 14:30 2017
    UNTIL 01 JUL 02:59 2017. CREATED: 02 JUN 14:27 2017

SABE A3821/17 ATIS FREQ 127.6 MHZ U/S. 23 JUN 14:22 2017 UNTIL
    04 JUL 23:59 2017. CREATED: 23 JUN 14:24 2017

SABE A3847/17 RWY 13/31 CLSD WIP MAINT. 04 AND 06 0430-0730,
    04 JUL 04:30 2017 UNTIL 06 JUL 07:30 2017. CREATED: 23 JUN
    21:00 2017

SABE A3903/17 ACFT STAND 7 CLSD WIP MAINT CNS123W SEQUENCE CHECK
    FOR SAEZYNYX A -- EXPECTED A3904/17 -- RECEIVED A3903/17
    CNN038W DUPLICATE NOTAM TRANSACTION ROLLED BACK, RETCODE
    = 14. 27 JUN 11:00 2017 UNTIL 27 JUN 20:00 2017. CREATED:
    26 JUN 22:05 2017

SABE A5968/16 IN AIP VOL II AD PART PAGE SABE AD 2.5 DATED ON
    OCTOBER 13TH 2016 AD 2.19 NAVIGATIONAL AND LANDING RADIO
    AIDS NDB/LI N AND NDB/LI P REVERSE COORDINATES INFORMATION
    FOR EACH ONE THE PUBLISHED INSTALLATIONS. 14 OCT 00:32 2016
    UNTIL PERM. CREATED: 14 OCT 00:39 2016

---------------------------------------------------------------------------